Location: Lawrence Junction
(40.9678°N, 80.3778°W)
Time: 11:37:29
(UTC+00:00)

Daily predictions for brighter satellites

Satellite Brightness Start Highest point End
(mag) Time Altitude Azimuth Time Altitude Azimuth Time Altitude Azimuth
COSMO-SKYMED 1 3.0 23:39:48 10° N 23:44:08 71° WNW 23:48:26 10° SSW
Cosmos 2219 4.0 23:40:32 10° SSE 23:45:28 30° ESE 23:50:26 10° NE
Meteor 2-9 Rocket 4.2 23:42:06 10° S 23:47:51 73° E 23:53:28 10° NNE
Cosmos 1975 3.7 23:46:21 10° SSW 23:50:15 55° W 23:54:12 10° N
Cosmos 2151 Rocket 3.7 23:47:00 10° S 23:51:24 83° W 23:55:49 10° N
NOSS 3-4 (A) 4.3 23:45:26 10° NNW 23:52:09 45° NE 23:59:25 10° ESE
NOSS 3-4 (C) 4.3 23:45:33 10° NNW 23:52:14 45° NE 23:59:30 10° ESE
Cosmos 2297 Rocket 3.3 23:48:49 10° SSE 23:52:55 21° E 23:57:01 10° NE
Nadezhda 1 Rocket 4.1 23:47:50 10° SSE 23:53:41 52° E 23:59:33 10° NNE
PSLV R/B 4.2 23:52:48 10° SSW 23:55:01 23° SSE 23:57:10 10° E
